Regional Weather Roundup
Issued by NWS Bismarck, ND

Home | Current Version | Previous Version | Text Only | Print | Product List | Glossary On
Versions: 1 2 3 4 5 6 7 8 9 10 11 12 13 14 15 16 17 18 19 20 21 22 23 24 25 26 27 28 29 30 31 32 33 34 35 36 37 38 39 40 41 42 43 44 45 46 47 48 49 50
000
ASUS43 KBIS 261710
RWRBIS

NWR BROADCAST TEXT
NATIONAL WEATHER SERVICE BISMARCK ND
1200 PM CDT FRI MAY 26 2017

NOTE: "FAIR" INDICATES FEW OR NO CLOUDS BELOW 12,000 FEET WITH NO
SIGNIFICANT WEATHER AND/OR OBSTRUCTIONS TO VISIBILITY.


CITY           SKY/WX    TMP DP  RH WIND       PRES   REMARKS
WILLISTON      CLOUDY    59  41  51 W14G21    29.77F
MINOT          CLOUDY    54  45  71 W16       29.71R
MINOT AFB      CLOUDY    56  45  65 W22       29.70R
BISMARCK       CLOUDY    59  40  49 NW16G23   29.78S
DICKINSON      PTSUNNY   59  37  44 NW23G36   29.78F
GARRISON         N/A     58  43  57 W18G28    29.73S
HETTINGER ARPT FAIR      62  37  39 NW26G40   29.83S
JAMESTOWN      CLOUDY    60  42  51 W18       29.73R
HAZEN          CLOUDY    59  41  51 NW20G25   29.77R
LINTON         CLOUDY    57  45  62 NW18G24   29.82R
MANDAN         CLOUDY    57  41  54 NW20G25   29.78S
STANLEY        CLOUDY    54  46  76 W17G25    29.76S
TIOGA          CLOUDY    54  46  76 W20G31    29.76R
WATFORD CITY   PTSUNNY   57  41  54 W20       29.78S
$$

CITY           SKY/WX    TMP DP  RH WIND       PRES   REMARKS
GRAND FORKS    FAIR      67  49  52 W18G25    29.65R
GRAND FORKS AF FAIR      66  48  50 W18       29.66S
DEVILS LAKE    CLOUDY    57  44  62 W21       29.68R
FARGO          FAIR      69  47  45 W16G23    29.69R
CAVALIER       FAIR      64  46  52 W18       29.61S
GRAFTON        FAIR      66  48  52 W17G24    29.65S
GWINNER        MOSUNNY   64  45  48 MISG      29.74S
LANGDON        PTSUNNY   61  46  59 W20G30    29.64S
ROLLA          CLOUDY    55  48  76 W18G26    29.65S
$$

CITY           SKY/WX    TMP DP  RH WIND       PRES   REMARKS
ABERDEEN       FAIR      65  39  38 W16G23    29.78S
MOBRIDGE       FAIR      62  40  44 NW15G26   29.80R
BUFFALO          N/A     61  36  39 W22G33    29.82S
RAPID CITY     FAIR      65  34  31 N13G24    29.90F
GLASGOW        FAIR      64  36  35 W17G28    29.82F
SIDNEY         PTSUNNY   63  37  38 NW21G29   29.80S
WOLF POINT     PTSUNNY   63  36  36 NW18G28   29.81F
GLENDIVE       FAIR      61  37  41 NW20G29   29.84F
MILES CITY     FAIR      63  36  36 NW16G23   29.87F
BAKER          FAIR      60  36  40 NW21G28   29.87R
$$

CITY           SKY/WX    TMP DP  RH WIND       PRES   REMARKS
BILLINGS       FAIR      56  34  43 VRB3      29.94S
GREAT FALLS    FAIR      57  37  47 VRB5      29.95F
REGINA         PTSUNNY   57  39  51 NW33G43   29.68R
ESTEVAN        PTSUNNY   55  43  62 W24G32    29.70S
$$





USA.gov is the U.S. government's official web portal to all federal, state and local government web resources and services.